Domov               UVHVVR             MKGP            O straneh              
ZDRAVSTVENO VARSTVO RASTLIN
  MREŽA AGROMET. POSTAJ
 ► PROGNOSTIČNA OBVESTILA
AGROMETEOROLOŠKI PODATKI -
ARSO
OBVLADOVANJE TVEGANJ ZARADI
NEUGODNIH VREMENSKIH RAZMER
  ► NARAVNE NESREČE
  ► SUŠA/MOČA
  ► NAMAKANJE
  ► ŽLED (gozdarstvo)
KARTOGRAFSKI PRIKAZI
SPLETNE POVEZAVE
PROJEKTI IN PUBLIKACIJE

AGROMETEOROLOŠKA MREŽA: VREMENSKE POSTAJE IN FENOLOŠKA OPAZOVANJA

Pregled podatkov za lokacijo Slovenske Konjice, meteorološka postaja 37885

Pregled senzorjev na lokaciji

ID Ime Zadnja
vrednost
Datum
zadnje
spremembe
Tip
senzorja
4063 Omočenost lista (U) 0 U 25.2.2018 16:00 A730WET
4062 Padavine (mm) 0 mm 25.2.2018 16:00 Rain-O-Matic
4061 Relativna vlaga 2 m (% RH) 56,43 % RH 25.2.2018 16:00 50YA
4060 Temperatura 2 m (°C) -6,57 °C 25.2.2018 16:00 50YA

Pregled podatkov zadnjih 24 ur

Zap.
št.
Datum in čas Slovenske Konjice
Omočenost
lista
Padavine Relativna
vlaga
2
m
Temperatura
2
m
1 25.2.2018 16:30
2 25.2.2018 16:00 0 0 56,4 -6,6
3 25.2.2018 15:30 0 0 55,8 -6,4
4 25.2.2018 15:00 0 0 55,3 -6,1
5 25.2.2018 14:30 0 0 55,2 -6,3
6 25.2.2018 14:00 0 0 54,7 -5,9
7 25.2.2018 13:30 0 0 55,4 -6,1
8 25.2.2018 13:00 0 0 57,9 -7,1
9 25.2.2018 12:30 0 0 59,1 -7,3
10 25.2.2018 12:00 0 0 60 -7,5
11 25.2.2018 11:30 0 0 61,4 -7,9
12 25.2.2018 11:00 0 0 61 -7,9
13 25.2.2018 10:30 0 0 62,9 -8,6
14 25.2.2018 10:00 0 0 62 -8,5
15 25.2.2018 09:30 0 0 60,3 -8,1
16 25.2.2018 09:00 0 0 61,1 -8,3
17 25.2.2018 08:30 0 0 64,6 -9,5
18 25.2.2018 08:00 0 0 65,5 -9,8
19 25.2.2018 07:30 0 0 67,6 -10,3
20 25.2.2018 07:00 0 0 68,3 -10,1
21 25.2.2018 06:30 0 0 69,3 -9,9
22 25.2.2018 06:00 0 0 71,6 -9,6
23 25.2.2018 05:30 0 0 71,9 -8,9
24 25.2.2018 05:00 0 0 70,6 -8,2
25 25.2.2018 04:30 0 0 68,9 -7,8
26 25.2.2018 04:00 0 0 68,1 -7,5
27 25.2.2018 03:30 0 0 67,3 -7,3
28 25.2.2018 03:00 0 0 67,9 -7,4
29 25.2.2018 02:30 0 0 67,6 -7,4
30 25.2.2018 02:00 0 0 65,3 -7,1
31 25.2.2018 01:30 0 0 59,9 -6,1
32 25.2.2018 01:00 0 0 58,9 -5,7
33 25.2.2018 00:30 0 0 59,1 -5,5
34 25.2.2018 00:00 0 0 61,3 -5,4
35 24.2.2018 23:30 0 0 62,9 -5,4
36 24.2.2018 23:00 0 0 64,2 -5,3
37 24.2.2018 22:30 0 0 68,2 -5,2
38 24.2.2018 22:00 0 0 71,9 -5,1
39 24.2.2018 21:30 0 0 74,1 -5,3
40 24.2.2018 21:00 0 0 73,2 -5,3
41 24.2.2018 20:30 0 0 72,3 -5,1
42 24.2.2018 20:00 0 0 72 -4,8
43 24.2.2018 19:30 1 0 71,2 -4,3
44 24.2.2018 19:00 1 0 73,1 -3,9
45 24.2.2018 18:30 1 0 79,3 -3,7
46 24.2.2018 18:00 1 0 80,4 -3,7
47 24.2.2018 17:30 1 0 79,6 -3,3
48 24.2.2018 17:00 1 0 80,5 -3,2
© 2011 Ministrstvo za kmetijstvo, gozdarstvo in prehrano. Vse pravice pridržane.